EW9523 Weather Reports


Display with metric or nautical units.
time (UTC)temp
F
wind
direction
speed
MPH
gust
MPH
rain 1hr
in
rain 24hr
in
rain mn
in
humidity
%
barometer
mb
20260903175655 66 168 2.0 6.0 0.00 0.05 0.05 90 1012.6
20260903174651 65 157 3.0 9.0 0.00 0.05 0.05 93 1012.6
20260903174614 64 104 3.0 8.0 0.00 0.05 0.05 94 1012.5
20260903172645 64 167 4.0 9.0 0.00 0.05 0.05 95 1012.4
20260903172124 63 74 2.0 7.0 0.00 0.05 0.05 95 1012.4
20260903170639 63 148 1.0 6.0 0.00 0.05 0.05 96 1012.6
20260903170119 63 103 1.0 6.0 0.00 0.05 0.05 95 1012.5
20260903164637 62 132 2.0 6.0 0.00 0.05 0.05 96 1012.5
20260903164111 62 135 2.0 9.0 0.00 0.05 0.05 96 1012.4
20260903162635 62 122 2.0 9.0 0.00 0.05 0.05 96 1012.3
20260903161635 62 179 3.0 9.0 0.00 0.05 0.05 96 1012.3
20260903160634 62 128 2.0 9.0 0.01 0.05 0.05 96 1012.5
20260903155632 62 168 2.0 5.0 0.01 0.05 0.05 96 1012.6
20260903154628 61 155 1.0 5.0 0.01 0.05 0.05 96 1012.6
20260903153628 61 194 2.0 5.0 0.01 0.05 0.05 96 1012.6
20260903152628 61 79 2.0 5.0 0.01 0.05 0.05 96 1012.6
20260903151628 61 151 2.0 4.0 0.02 0.05 0.05 96 1012.6
20260903150627 60 126 1.0 4.0 0.01 0.04 0.05 96 1012.6
20260903145626 60 113 1.0 5.0 0.01 0.04 0.04 96 1012.6
20260903145104 60 203 0.0 2.0 0.02 0.04 0.04 96 1012.7
20260903143627 60 248 1.0 2.0 0.02 0.04 0.04 95 1012.7
20260903142627 59 248 1.0 3.0 0.03 0.04 0.04 95 1012.6
20260903141615 59 331 1.0 4.0 0.02 0.03 0.03 95 1012.4
20260903140615 59 87 1.0 3.0 0.02 0.04 0.03 95 1012.4
20260903135607 59 131 1.0 2.0 0.03 0.04 0.03 95 1012.4
20260903134603 59 116 1.0 5.0 0.02 0.03 0.02 95 1012.4
20260903133602 59 297 0.0 0.0 0.02 0.04 0.02 94 1012.5
20260903133044 59 206 0.0 1.0 0.01 0.03 0.01 94 1012.5
20260903132041 59 168 0.0 2.0 0.01 0.03 0.01 94 1012.5
20260903130549 59 267 0.0 2.0 0.01 0.03 0.01 94 1012.6
20260903130017 59 187 1.0 5.0 0.00 0.02 0.00 93 1012.7
20260903124540 59 184 1.0 5.0 0.00 0.03 0.00 93 1012.7
20260903123537 59 178 0.0 4.0 0.00 0.04 0.00 93 1012.8
20260903123012 59 88 1.0 4.0 0.00 0.04 0.00 92 1012.9
20260903121537 59 162 0.0 0.0 0.00 0.05 0.00 92 1013.0
20260903120537 60 213 0.0 0.0 0.00 0.06 0.00 91 1013.1
20260903115536 60 213 0.0 0.0 0.00 0.06 0.00 90 1013.2
20260903114531 60 213 0.0 0.0 0.00 0.07 0.00 90 1013.3
20260903113530 60 213 0.0 0.0 0.00 0.07 0.00 89 1013.3
20260903112521 60 213 0.0 0.0 0.00 0.07 0.00 88 1013.3
20260903111521 60 213 0.0 0.0 0.00 0.07 0.00 88 1013.4
20260903110520 60 213 0.0 0.0 0.00 0.07 0.00 88 1013.4
20260903105513 60 221 0.0 3.0 0.00 0.07 0.00 88 1013.7
20260903104512 60 167 1.0 4.0 0.00 0.07 0.00 88 1013.7
20260903103959 60 124 1.0 5.0 0.00 0.07 0.00 87 1013.8
20260903102505 60 114 0.0 2.0 0.00 0.07 0.00 87 1013.9
20260903101507 60 114 0.0 2.0 0.00 0.07 0.00 87 1013.9
20260903100456 60 213 0.0 3.0 0.00 0.07 0.00 86 1013.9
20260903095457 60 155 0.0 2.0 0.00 0.07 0.00 86 1013.9
20260903094453 60 186 1.0 3.0 0.00 0.07 0.00 86 1013.9
20260903093444 60 97 0.0 0.0 0.00 0.07 0.00 86 1014.1
20260903092927 60 122 0.0 3.0 0.00 0.07 0.00 85 1014.2
20260903091445 60 220 0.0 0.0 0.00 0.07 0.00 85 1014.4
20260903090430 60 220 0.0 1.0 0.00 0.07 0.00 85 1014.4
20260903090341 60 211 1.0 4.0 0.00 0.07 0.00 85 1014.4
20260903084909 60 161 0.0 4.0 0.00 0.07 0.00 85 1014.4
20260903083416 60 165 0.0 6.0 0.00 0.07 0.00 85 1014.5
20260903082414 60 152 0.0 4.0 0.00 0.07 0.00 84 1014.6
20260903081414 60 154 1.0 5.0 0.00 0.07 0.00 84 1014.6
20260903080414 60 150 1.0 5.0 0.00 0.07 0.00 84 1014.6
20260903075414 60 156 1.0 5.0 0.00 0.07 0.00 83 1014.7
20260903074414 61 147 0.0 2.0 0.00 0.07 0.00 82 1014.7
20260903073854 61 115 0.0 2.0 0.00 0.07 0.00 81 1014.8
20260903072400 61 178 0.0 3.0 0.00 0.07 0.00 81 1014.7
20260903071348 61 113 0.0 2.0 0.00 0.07 0.00 81 1014.8
20260903070336 61 112 1.0 4.0 0.00 0.07 0.00 81 1014.8
20260903065334 61 109 2.0 5.0 0.00 0.07 0.07 80 1014.9
20260903064333 61 123 1.0 5.0 0.00 0.07 0.07 80 1014.8
20260903063333 61 123 0.0 3.0 0.00 0.07 0.07 80 1014.9
20260903062334 61 163 0.0 1.0 0.00 0.07 0.07 81 1014.9
20260903061325 61 59 0.0 0.0 0.00 0.07 0.07 81 1014.9
20260903060322 61 59 0.0 0.0 0.00 0.07 0.07 80 1014.9
20260903055802 61 59 0.0 2.0 0.00 0.07 0.07 80 1015.0
20260903054320 60 64 2.0 3.0 0.00 0.07 0.07 80 1015.1
20260903053321 60 64 2.0 3.0 0.00 0.07 0.07 80 1015.2
20260903052742 60 61 0.0 2.0 0.00 0.07 0.07 79 1015.1
20260903051257 61 82 0.0 1.0 0.00 0.07 0.07 79 1015.2
20260903050233 61 53 0.0 0.0 0.00 0.07 0.07 78 1015.4
20260903045715 61 355 0.0 0.0 0.00 0.07 0.07 78 1015.4
20260903044231 61 355 0.0 0.0 0.00 0.07 0.07 76 1015.4
20260903043707 62 355 0.0 0.0 0.00 0.07 0.07 75 1015.3
20260903042222 62 273 0.0 0.0 0.00 0.07 0.07 74 1015.2
20260903041201 63 273 2.0 4.0 0.00 0.07 0.07 74 1015.3
20260903040141 63 254 2.0 6.0 0.00 0.07 0.07 73 1015.2
20260903040052 63 263 1.0 5.0 0.00 0.07 0.07 73 1015.0
20260903034141 63 265 3.0 10.0 0.00 0.07 0.07 72 1015.0
20260903033140 64 265 1.0 3.0 0.00 0.07 0.07 70 1014.9
20260903033110 64 292 2.0 5.0 0.00 0.07 0.07 69 1014.6
20260903031138 65 284 3.0 6.0 0.00 0.07 0.07 68 1014.5
20260903030139 65 291 3.0 7.0 0.00 0.07 0.07 66 1014.4
20260903025618 66 223 3.0 9.0 0.00 0.07 0.07 65 1014.5
20260903024138 67 291 2.0 6.0 0.00 0.07 0.07 63 1014.5
20260903023134 67 296 2.0 10.0 0.00 0.07 0.07 62 1014.6
20260903022135 69 261 1.0 5.0 0.00 0.07 0.07 59 1014.5
20260903021607 69 269 2.0 9.0 0.00 0.07 0.07 57 1014.6
20260903020127 70 217 2.0 9.0 0.00 0.07 0.07 57 1014.6
20260903015127 70 220 3.0 7.0 0.00 0.07 0.07 56 1014.6
20260903014125 72 213 3.0 9.0 0.00 0.07 0.07 54 1014.7
20260903013123 72 234 5.0 10.0 0.00 0.07 0.07 53 1014.7
20260903012123 73 215 4.0 10.0 0.00 0.07 0.07 53 1014.7
20260903011120 73 250 3.0 10.0 0.00 0.07 0.07 54 1014.6
20260903010120 73 184 4.0 10.0 0.00 0.07 0.07 53 1014.6
20260903005109 74 280 3.0 10.0 0.00 0.07 0.07 53 1014.6
20260903004107 73 192 5.0 13.0 0.00 0.07 0.07 54 1014.5
20260903003104 74 220 4.0 11.0 0.00 0.07 0.07 53 1014.5
20260903002104 74 261 5.0 13.0 0.00 0.07 0.07 53 1014.5
20260903001103 75 263 4.0 11.0 0.00 0.07 0.07 52 1014.5
20260903000103 75 188 3.0 10.0 0.00 0.07 0.07 53 1014.6
20260902235457 73 224 5.0 12.0 0.00 0.07 0.07 54 1014.6
20260902235129 74 202 5.0 12.0 0.00 0.07 0.07 53 1014.7
20260902233548 73 264 7.0 15.0 0.00 0.07 0.07 55 1014.6
20260902232103 75 232 4.0 10.0 0.00 0.07 0.07 55 1014.6
20260902231055 74 282 6.0 13.0 0.00 0.07 0.07 55 1014.8
20260902230053 75 223 5.0 13.0 0.00 0.07 0.07 54 1014.9
20260902225053 75 205 5.0 15.0 0.00 0.07 0.07 55 1015.0
20260902225020 74 269 2.0 5.0 0.00 0.07 0.07 58 1015.0
20260902223053 73 148 1.0 4.0 0.00 0.07 0.07 61 1015.1
20260902222051 73 115 2.0 10.0 0.00 0.07 0.07 58 1015.2
20260902221046 74 186 4.0 11.0 0.00 0.07 0.07 60 1015.2
20260902220045 73 110 4.0 10.0 0.00 0.07 0.07 63 1015.2
20260902220001 72 130 3.0 11.0 0.00 0.07 0.07 64 1015.3
20260902214032 72 124 3.0 10.0 0.00 0.07 0.07 64 1015.4
20260902213513 72 129 2.0 10.0 0.00 0.07 0.07 64 1015.4
20260902212031 72 59 3.0 12.0 0.00 0.07 0.07 64 1015.3
20260902211029 71 130 3.0 9.0 0.00 0.07 0.07 67 1015.5
20260902210506 71 120 4.0 13.0 0.00 0.07 0.07 66 1015.4
20260902205028 71 88 3.0 7.0 0.00 0.07 0.07 68 1015.5
20260902204028 70 109 3.0 10.0 0.00 0.07 0.07 70 1015.5
20260902203455 70 103 3.0 10.0 0.00 0.07 0.07 72 1015.7
20260902202504 70 138 2.0 10.0 0.00 0.07 0.07 69 1015.6
20260902201022 69 126 2.0 7.0 0.00 0.07 0.07 71 1015.6
20260902200023 69 131 2.0 9.0 0.00 0.07 0.07 71 1015.7
20260902195505 69 111 3.0 10.0 0.00 0.07 0.07 73 1015.8
20260902194014 70 112 3.0 7.0 0.00 0.07 0.07 72 1015.9
20260902193457 70 103 3.0 7.0 0.00 0.07 0.07 73 1016.0
20260902192013 69 231 2.0 6.0 0.00 0.07 0.07 74 1016.1
20260902191453 68 132 3.0 10.0 0.00 0.07 0.07 74 1016.2
20260902190451 69 136 2.0 9.0 0.00 0.07 0.07 74 1016.2
20260902185011 68 135 3.0 7.0 0.00 0.07 0.07 76 1016.3
20260902184011 68 76 3.0 6.0 0.00 0.07 0.07 78 1016.3
20260902182943 67 107 1.0 6.0 0.00 0.07 0.07 78 1016.2
20260902181942 66 177 2.0 6.0 0.00 0.07 0.07 79 1016.3
20260902181421 66 128 2.0 7.0 0.00 0.07 0.07 84 1016.2